Time,TemperatureF,DewpointF,PressureIn,WindDirection,WindDirectionDegrees,WindSpeedMPH,WindSpeedGustMPH,Humidity,HourlyPrecipIn,Conditions,Clouds,dailyrainin,SoftwareType,DateUTC
2013-05-26 00:04:00,72.7,69.9,30.12,WNW,289,0.0,1.0,91,0.00,,---,0.00,VWS V14.01,2013-05-26 05:04:00,
2013-05-26 00:06:00,72.6,69.5,30.12,WNW,289,0.0,1.0,90,0.00,,---,0.00,VWS V14.01,2013-05-26 05:06:00,
2013-05-26 00:09:00,72.6,69.5,30.12,WNW,289,0.0,0.0,90,0.00,,---,0.00,VWS V14.01,2013-05-26 05:09:00,
2013-05-26 00:14:00,72.5,69.4,30.11,WNW,289,0.0,0.0,90,0.00,,---,0.00,VWS V14.01,2013-05-26 05:14:00,
2013-05-26 00:19:00,72.5,69.7,30.11,WNW,289,0.0,0.0,91,0.00,,---,0.00,VWS V14.01,2013-05-26 05:19:00,
2013-05-26 00:24:00,72.4,69.6,30.11,WNW,289,0.0,0.0,91,0.00,,---,0.00,VWS V14.01,2013-05-26 05:24:00,
2013-05-26 00:29:00,72.2,69.8,30.12,WNW,289,0.0,0.0,92,0.00,,---,0.00,VWS V14.01,2013-05-26 05:29:00,
2013-05-26 00:34:00,72.0,69.6,30.12,WNW,289,0.0,0.0,92,0.00,,---,0.00,VWS V14.01,2013-05-26 05:34:00,
2013-05-26 00:36:00,71.9,69.4,30.12,WNW,289,0.0,0.0,92,0.00,,---,0.00,VWS V14.01,2013-05-26 05:36:00,
2013-05-26 00:39:00,71.9,69.4,30.12,WNW,289,0.0,0.0,92,0.00,,---,0.00,VWS V14.01,2013-05-26 05:39:00,
2013-05-26 00:44:00,71.7,69.3,30.12,WNW,289,0.0,0.0,92,0.00,,---,0.00,VWS V14.01,2013-05-26 05:44:00,
2013-05-26 00:49:00,71.7,69.6,30.12,WNW,289,0.0,0.0,93,0.00,,---,0.00,VWS V14.01,2013-05-26 05:49:00,
2013-05-26 00:54:00,71.6,69.5,30.12,WNW,289,0.0,0.0,93,0.00,,---,0.00,VWS V14.01,2013-05-26 05:54:00,
2013-05-26 00:59:00,71.4,69.6,30.12,WNW,289,0.0,0.0,94,0.00,,---,0.00,VWS V14.01,2013-05-26 05:59:00,
2013-05-26 01:04:00,71.4,69.6,30.11,WNW,289,0.0,1.0,94,0.00,,---,0.00,VWS V14.01,2013-05-26 06:04:00,
2013-05-26 01:06:00,71.3,69.2,30.11,WNW,289,0.0,1.0,93,0.00,,---,0.00,VWS V14.01,2013-05-26 06:06:00,
2013-05-26 01:09:00,71.3,69.2,30.11,WNW,289,0.0,0.0,93,0.00,,---,0.00,VWS V14.01,2013-05-26 06:09:00,
2013-05-26 01:14:00,71.1,69.3,30.11,WNW,289,0.0,0.0,94,0.00,,---,0.00,VWS V14.01,2013-05-26 06:14:00,
2013-05-26 01:19:00,71.1,69.3,30.11,WNW,289,0.0,0.0,94,0.00,,---,0.00,VWS V14.01,2013-05-26 06:19:00,
2013-05-26 01:24:00,71.1,69.3,30.11,WNW,289,0.0,0.0,94,0.00,,---,0.00,VWS V14.01,2013-05-26 06:24:00,
2013-05-26 01:29:00,71.1,69.3,30.11,WNW,289,0.0,0.0,94,0.00,,---,0.00,VWS V14.01,2013-05-26 06:29:00,
2013-05-26 01:34:00,71.0,68.9,30.11,WNW,289,0.0,0.0,93,0.00,,---,0.00,VWS V14.01,2013-05-26 06:34:00,
2013-05-26 01:39:00,71.0,68.9,30.11,WNW,289,0.0,0.0,93,0.00,,---,0.00,VWS V14.01,2013-05-26 06:39:00,
2013-05-26 01:44:00,70.9,68.8,30.11,WNW,289,0.0,0.0,93,0.00,,---,0.00,VWS V14.01,2013-05-26 06:44:00,
2013-05-26 01:49:00,70.9,69.1,30.11,WNW,289,0.0,0.0,94,0.00,,---,0.00,VWS V14.01,2013-05-26 06:49:00,
2013-05-26 01:54:00,70.9,69.1,30.11,WNW,289,0.0,0.0,94,0.00,,---,0.00,VWS V14.01,2013-05-26 06:54:00,
2013-05-26 01:59:00,70.9,69.1,30.10,WNW,289,0.0,0.0,94,0.00,,---,0.00,VWS V14.01,2013-05-26 06:59:00,
2013-05-26 02:04:00,70.9,69.1,30.11,WNW,289,0.0,0.0,94,0.00,,---,0.00,VWS V14.01,2013-05-26 07:04:00,
2013-05-26 02:09:00,70.9,69.1,30.10,WNW,289,0.0,0.0,94,0.00,,---,0.00,VWS V14.01,2013-05-26 07:09:00,
2013-05-26 02:14:00,70.9,69.1,30.10,WNW,289,0.0,0.0,94,0.00,,---,0.00,VWS V14.01,2013-05-26 07:14:00,
2013-05-26 02:19:00,70.8,69.0,30.10,WNW,289,0.0,0.0,94,0.00,,---,0.00,VWS V14.01,2013-05-26 07:19:00,
2013-05-26 02:24:00,70.9,69.1,30.10,WNW,289,0.0,0.0,94,0.00,,---,0.00,VWS V14.01,2013-05-26 07:24:00,
2013-05-26 02:29:00,70.8,69.0,30.11,WNW,289,0.0,0.0,94,0.00,,---,0.00,VWS V14.01,2013-05-26 07:29:00,
2013-05-26 02:34:00,70.8,69.0,30.10,WNW,289,0.0,0.0,94,0.00,,---,0.00,VWS V14.01,2013-05-26 07:34:00,
2013-05-26 02:36:00,70.8,69.3,30.10,WNW,289,0.0,0.0,95,0.00,,---,0.00,VWS V14.01,2013-05-26 07:36:00,
2013-05-26 02:39:00,70.9,69.4,30.10,WNW,289,0.0,0.0,95,0.00,,---,0.00,VWS V14.01,2013-05-26 07:39:00,
2013-05-26 02:44:00,70.8,69.3,30.10,WNW,289,0.0,0.0,95,0.00,,---,0.00,VWS V14.01,2013-05-26 07:44:00,
2013-05-26 02:49:00,70.7,69.2,30.10,WNW,289,0.0,0.0,95,0.00,,---,0.00,VWS V14.01,2013-05-26 07:49:00,
2013-05-26 02:54:00,70.6,69.1,30.11,WNW,289,0.0,0.0,95,0.00,,---,0.00,VWS V14.01,2013-05-26 07:54:00,
2013-05-26 02:59:00,70.6,69.1,30.11,WNW,289,0.0,0.0,95,0.00,,---,0.00,VWS V14.01,2013-05-26 07:59:00,
2013-05-26 03:04:00,70.6,68.8,30.11,WNW,289,0.0,0.0,94,0.00,,---,0.00,VWS V14.01,2013-05-26 08:04:00,
2013-05-26 03:06:00,70.6,69.1,30.11,WNW,289,0.0,0.0,95,0.00,,---,0.00,VWS V14.01,2013-05-26 08:06:00,
2013-05-26 03:09:00,70.6,69.1,30.11,WNW,289,0.0,0.0,95,0.00,,---,0.00,VWS V14.01,2013-05-26 08:09:00,
2013-05-26 03:14:00,70.5,69.0,30.11,WNW,289,0.0,0.0,95,0.00,,---,0.00,VWS V14.01,2013-05-26 08:14:00,
2013-05-26 03:19:00,70.5,69.0,30.11,WNW,289,0.0,0.0,95,0.00,,---,0.00,VWS V14.01,2013-05-26 08:19:00,
2013-05-26 03:24:00,70.4,68.9,30.11,WNW,289,0.0,0.0,95,0.00,,---,0.00,VWS V14.01,2013-05-26 08:24:00,
2013-05-26 03:29:00,70.4,68.9,30.11,WNW,289,0.0,0.0,95,0.00,,---,0.00,VWS V14.01,2013-05-26 08:29:00,
2013-05-26 03:34:00,70.5,69.0,30.11,WNW,289,0.0,0.0,95,0.00,,---,0.00,VWS V14.01,2013-05-26 08:34:00,
2013-05-26 03:36:00,70.5,69.0,30.11,WNW,289,0.0,0.0,95,0.00,,---,0.00,VWS V14.01,2013-05-26 08:36:00,
2013-05-26 03:39:00,70.4,68.9,30.11,WNW,289,0.0,0.0,95,0.00,,---,0.00,VWS V14.01,2013-05-26 08:39:00,
2013-05-26 03:44:00,70.3,68.8,30.11,WNW,289,0.0,0.0,95,0.00,,---,0.00,VWS V14.01,2013-05-26 08:44:00,
2013-05-26 03:49:00,70.2,68.7,30.12,WNW,289,0.0,0.0,95,0.00,,---,0.00,VWS V14.01,2013-05-26 08:49:00,
2013-05-26 03:54:00,70.2,68.7,30.12,WNW,289,0.0,0.0,95,0.00,,---,0.00,VWS V14.01,2013-05-26 08:54:00,
2013-05-26 03:59:00,70.1,68.6,30.12,WNW,289,0.0,0.0,95,0.00,,---,0.00,VWS V14.01,2013-05-26 08:59:00,
2013-05-26 04:04:00,70.1,68.6,30.12,WNW,289,0.0,0.0,95,0.00,,---,0.00,VWS V14.01,2013-05-26 09:04:00,
2013-05-26 04:09:00,70.3,68.8,30.12,WNW,289,0.0,0.0,95,0.00,,---,0.00,VWS V14.01,2013-05-26 09:09:00,
2013-05-26 04:14:00,70.3,68.8,30.12,WNW,289,0.0,0.0,95,0.00,,---,0.00,VWS V14.01,2013-05-26 09:14:00,
2013-05-26 04:19:00,70.3,68.8,30.12,WNW,289,0.0,0.0,95,0.00,,---,0.00,VWS V14.01,2013-05-26 09:19:00,
2013-05-26 04:24:00,70.3,68.8,30.12,WNW,289,0.0,0.0,95,0.00,,---,0.00,VWS V14.01,2013-05-26 09:24:00,
2013-05-26 04:29:00,70.3,68.8,30.12,WNW,289,0.0,0.0,95,0.00,,---,0.00,VWS V14.01,2013-05-26 09:29:00,
2013-05-26 04:34:00,70.2,68.7,30.12,WNW,289,0.0,0.0,95,0.00,,---,0.00,VWS V14.01,2013-05-26 09:34:00,
2013-05-26 04:39:00,70.1,68.6,30.12,WNW,289,0.0,0.0,95,0.00,,---,0.00,VWS V14.01,2013-05-26 09:39:00,
2013-05-26 04:44:00,70.1,68.6,30.12,WNW,289,0.0,0.0,95,0.00,,---,0.00,VWS V14.01,2013-05-26 09:44:00,
2013-05-26 04:49:00,70.2,68.7,30.12,WNW,289,0.0,0.0,95,0.00,,---,0.00,VWS V14.01,2013-05-26 09:49:00,
2013-05-26 04:54:00,70.1,68.6,30.12,WNW,289,0.0,0.0,95,0.00,,---,0.00,VWS V14.01,2013-05-26 09:54:00,
2013-05-26 04:59:00,70.0,68.5,30.12,WNW,289,0.0,0.0,95,0.00,,---,0.00,VWS V14.01,2013-05-26 09:59:00,
2013-05-26 05:04:00,70.0,68.5,30.12,WNW,289,0.0,0.0,95,0.00,,---,0.00,VWS V14.01,2013-05-26 10:04:00,
2013-05-26 05:06:00,70.1,68.6,30.12,WNW,289,0.0,0.0,95,0.00,,---,0.00,VWS V14.01,2013-05-26 10:06:00,
2013-05-26 05:09:00,70.1,68.6,30.12,WNW,289,0.0,0.0,95,0.00,,---,0.00,VWS V14.01,2013-05-26 10:09:00,
2013-05-26 05:14:00,70.1,68.6,30.12,WNW,289,0.0,0.0,95,0.00,,---,0.00,VWS V14.01,2013-05-26 10:14:00,
2013-05-26 05:19:00,70.1,68.6,30.12,WNW,289,0.0,0.0,95,0.00,,---,0.00,VWS V14.01,2013-05-26 10:19:00,
2013-05-26 05:24:00,70.1,68.6,30.12,WNW,289,0.0,0.0,95,0.00,,---,0.00,VWS V14.01,2013-05-26 10:24:00,
2013-05-26 05:29:00,70.1,68.6,30.12,WNW,289,0.0,0.0,95,0.00,,---,0.00,VWS V14.01,2013-05-26 10:29:00,
2013-05-26 05:34:00,70.1,68.6,30.12,WNW,289,0.0,0.0,95,0.00,,---,0.00,VWS V14.01,2013-05-26 10:34:00,
2013-05-26 05:36:00,70.1,68.9,30.12,WNW,289,0.0,0.0,96,0.00,,---,0.00,VWS V14.01,2013-05-26 10:36:00,
2013-05-26 05:40:00,70.1,68.9,30.12,WNW,289,0.0,0.0,96,0.00,,---,0.00,VWS V14.01,2013-05-26 10:40:00,
2013-05-26 05:45:00,70.1,68.9,30.12,WNW,289,0.0,0.0,96,0.00,,---,0.00,VWS V14.01,2013-05-26 10:45:00,
2013-05-26 05:50:00,70.1,68.9,30.12,WNW,289,0.0,0.0,96,0.00,,---,0.00,VWS V14.01,2013-05-26 10:50:00,
2013-05-26 05:55:00,70.2,69.0,30.12,WNW,286,0.0,0.0,96,0.00,,---,0.00,VWS V14.01,2013-05-26 10:55:00,
2013-05-26 06:00:00,70.2,69.0,30.11,WNW,284,0.0,0.0,96,0.00,,---,0.00,VWS V14.01,2013-05-26 11:00:00,
2013-05-26 06:05:00,70.2,69.0,30.12,WNW,284,0.0,0.0,96,0.00,,---,0.00,VWS V14.01,2013-05-26 11:05:00,
2013-05-26 06:06:00,70.2,69.0,30.12,WNW,284,0.0,0.0,96,0.00,,---,0.00,VWS V14.01,2013-05-26 11:06:00,
2013-05-26 06:10:00,70.1,68.9,30.12,ENE,68,0.0,1.0,96,0.00,,---,0.00,VWS V14.01,2013-05-26 11:10:00,
2013-05-26 06:15:00,70.1,68.9,30.12,East,93,0.0,1.0,96,0.00,,---,0.00,VWS V14.01,2013-05-26 11:15:00,
2013-05-26 06:20:00,70.1,68.9,30.12,West,260,0.0,1.0,96,0.00,,---,0.00,VWS V14.01,2013-05-26 11:20:00,
2013-05-26 06:25:00,70.1,68.9,30.12,West,260,0.0,1.0,96,0.00,,---,0.00,VWS V14.01,2013-05-26 11:25:00,
2013-05-26 06:30:00,70.2,69.0,30.13,West,260,0.0,1.0,96,0.00,,---,0.00,VWS V14.01,2013-05-26 11:30:00,
2013-05-26 06:35:00,70.3,69.1,30.13,SE,134,0.0,1.0,96,0.00,,---,0.00,VWS V14.01,2013-05-26 11:35:00,
2013-05-26 06:36:00,70.3,69.1,30.13,SE,139,0.0,1.0,96,0.00,,---,0.00,VWS V14.01,2013-05-26 11:36:00,
2013-05-26 06:40:00,70.4,69.2,30.13,SW,222,0.0,1.0,96,0.00,,---,0.00,VWS V14.01,2013-05-26 11:40:00,
2013-05-26 06:45:00,70.4,69.2,30.13,SW,222,0.0,1.0,96,0.00,,---,0.00,VWS V14.01,2013-05-26 11:45:00,
2013-05-26 06:50:00,70.5,69.3,30.13,SW,223,0.0,1.0,96,0.00,,---,0.00,VWS V14.01,2013-05-26 11:50:00,
2013-05-26 06:55:00,70.6,69.4,30.13,SW,225,0.0,1.0,96,0.00,,---,0.00,VWS V14.01,2013-05-26 11:55:00,
2013-05-26 07:00:00,70.8,69.6,30.13,South,186,0.0,1.0,96,0.00,,---,0.00,VWS V14.01,2013-05-26 12:00:00,
2013-05-26 07:05:00,71.0,69.8,30.13,NE,34,0.0,1.0,96,0.00,,---,0.00,VWS V14.01,2013-05-26 12:05:00,
2013-05-26 07:06:00,71.0,69.8,30.13,NE,34,0.0,1.0,96,0.00,,---,0.00,VWS V14.01,2013-05-26 12:06:00,
2013-05-26 07:10:00,71.2,70.0,30.13,SSE,165,0.0,1.0,96,0.00,,---,0.00,VWS V14.01,2013-05-26 12:10:00,
2013-05-26 07:15:00,71.5,70.3,30.13,SSE,164,0.0,1.0,96,0.00,,---,0.00,VWS V14.01,2013-05-26 12:15:00,
2013-05-26 07:20:00,71.6,70.4,30.13,SSE,164,0.0,1.0,96,0.00,,---,0.00,VWS V14.01,2013-05-26 12:20:00,
2013-05-26 07:25:00,71.9,70.4,30.13,SSE,164,0.0,1.0,95,0.00,,---,0.00,VWS V14.01,2013-05-26 12:25:00,
2013-05-26 07:30:00,72.0,70.5,30.13,ESE,121,1.0,1.0,95,0.00,,---,0.00,VWS V14.01,2013-05-26 12:30:00,
2013-05-26 07:35:00,72.3,70.8,30.13,ESE,119,0.0,1.0,95,0.00,,---,0.00,VWS V14.01,2013-05-26 12:35:00,
2013-05-26 07:40:00,72.3,70.5,30.13,ESE,121,0.0,0.0,94,0.00,,---,0.00,VWS V14.01,2013-05-26 12:40:00,
2013-05-26 07:45:00,72.5,70.7,30.13,SSE,166,0.0,1.0,94,0.00,,---,0.00,VWS V14.01,2013-05-26 12:45:00,
2013-05-26 07:50:00,72.6,70.5,30.14,SSE,166,0.0,1.0,93,0.00,,---,0.00,VWS V14.01,2013-05-26 12:50:00,
2013-05-26 07:55:00,72.8,70.3,30.14,SSE,161,0.0,1.0,92,0.00,,---,0.00,VWS V14.01,2013-05-26 12:55:00,
2013-05-26 08:00:00,73.1,71.0,30.14,SSE,161,0.0,1.0,93,0.00,,---,0.00,VWS V14.01,2013-05-26 13:00:00,
2013-05-26 08:05:00,73.0,70.5,30.14,SSE,161,0.0,1.0,92,0.00,,---,0.00,VWS V14.01,2013-05-26 13:05:00,
2013-05-26 08:10:00,73.1,70.3,30.14,East,86,0.0,1.0,91,0.00,,---,0.00,VWS V14.01,2013-05-26 13:10:00,
2013-05-26 08:15:00,73.2,70.4,30.14,ESE,115,0.0,1.0,91,0.00,,---,0.00,VWS V14.01,2013-05-26 13:15:00,
2013-05-26 08:20:00,73.4,70.9,30.14,ESE,115,0.0,1.0,92,0.00,,---,0.00,VWS V14.01,2013-05-26 13:20:00,
2013-05-26 08:25:00,73.5,70.7,30.14,East,86,0.0,1.0,91,0.00,,---,0.00,VWS V14.01,2013-05-26 13:25:00,
2013-05-26 08:30:00,73.8,71.0,30.14,East,86,0.0,1.0,91,0.00,,---,0.00,VWS V14.01,2013-05-26 13:30:00,
2013-05-26 08:35:00,73.9,70.8,30.14,South,186,0.0,1.0,90,0.00,,---,0.00,VWS V14.01,2013-05-26 13:35:00,
2013-05-26 08:36:00,74.0,70.9,30.14,South,186,0.0,1.0,90,0.00,,---,0.00,VWS V14.01,2013-05-26 13:36:00,
2013-05-26 08:40:00,74.2,70.8,30.14,South,186,0.0,0.0,89,0.00,,---,0.00,VWS V14.01,2013-05-26 13:40:00,
2013-05-26 08:45:00,74.4,70.9,30.15,South,184,0.0,1.0,89,0.00,,---,0.00,VWS V14.01,2013-05-26 13:45:00,
2013-05-26 08:50:00,74.6,70.8,30.15,WNW,300,0.0,1.0,88,0.00,,---,0.00,VWS V14.01,2013-05-26 13:50:00,
2013-05-26 08:55:00,74.8,70.7,30.15,WNW,300,0.0,1.0,87,0.00,,---,0.00,VWS V14.01,2013-05-26 13:55:00,
2013-05-26 09:00:00,75.1,71.0,30.15,WNW,300,0.0,1.0,87,0.00,,---,0.00,VWS V14.01,2013-05-26 14:00:00,
2013-05-26 09:05:00,75.3,70.8,30.16,WNW,300,0.0,1.0,86,0.00,,---,0.00,VWS V14.01,2013-05-26 14:05:00,
2013-05-26 09:10:00,75.8,70.6,30.15,North,5,0.0,2.0,84,0.00,,---,0.00,VWS V14.01,2013-05-26 14:10:00,
2013-05-26 09:15:00,75.9,70.7,30.16,NNW,343,0.0,2.0,84,0.00,,---,0.00,VWS V14.01,2013-05-26 14:15:00,
2013-05-26 09:20:00,75.9,70.0,30.16,East,86,0.0,2.0,82,0.00,,---,0.00,VWS V14.01,2013-05-26 14:20:00,
2013-05-26 09:25:00,76.1,70.2,30.16,NNE,15,0.0,2.0,82,0.00,,---,0.00,VWS V14.01,2013-05-26 14:25:00,
2013-05-26 09:30:00,76.8,71.6,30.16,NNE,15,0.0,2.0,84,0.00,,---,0.00,VWS V14.01,2013-05-26 14:30:00,
2013-05-26 09:35:00,77.2,70.9,30.15,NE,41,1.0,2.0,81,0.00,,---,0.00,VWS V14.01,2013-05-26 14:35:00,
2013-05-26 09:36:00,77.2,71.3,30.15,NE,41,0.0,2.0,82,0.00,,---,0.00,VWS V14.01,2013-05-26 14:36:00,
2013-05-26 09:40:00,77.0,70.7,30.15,SW,221,1.0,4.0,81,0.00,,---,0.00,VWS V14.01,2013-05-26 14:40:00,
2013-05-26 09:45:00,76.9,69.9,30.16,SSE,150,0.0,4.0,79,0.00,,---,0.00,VWS V14.01,2013-05-26 14:45:00,
2013-05-26 09:50:00,77.1,70.8,30.16,West,281,1.0,4.0,81,0.00,,---,0.00,VWS V14.01,2013-05-26 14:50:00,
2013-05-26 09:55:00,77.7,70.3,30.16,WSW,242,1.0,4.0,78,0.00,,---,0.00,VWS V14.01,2013-05-26 14:55:00,
2013-05-26 10:00:00,77.8,70.0,30.16,ENE,74,0.0,4.0,77,0.00,,---,0.00,VWS V14.01,2013-05-26 15:00:00,
2013-05-26 10:05:00,77.9,70.9,30.16,ENE,74,0.0,4.0,79,0.00,,---,0.00,VWS V14.01,2013-05-26 15:05:00,
2013-05-26 10:10:00,77.8,70.0,30.16,ENE,74,0.0,1.0,77,0.00,,---,0.00,VWS V14.01,2013-05-26 15:10:00,
2013-05-26 10:15:00,77.5,70.1,30.16,NE,39,0.0,1.0,78,0.00,,---,0.00,VWS V14.01,2013-05-26 15:15:00,
2013-05-26 10:20:00,77.0,69.6,30.16,NNE,23,0.0,1.0,78,0.00,,---,0.00,VWS V14.01,2013-05-26 15:20:00,
2013-05-26 10:25:00,77.1,70.1,30.17,NNW,342,0.0,2.0,79,0.00,,---,0.00,VWS V14.01,2013-05-26 15:25:00,
2013-05-26 10:30:00,76.9,69.2,30.16,NE,34,0.0,2.0,77,0.00,,---,0.00,VWS V14.01,2013-05-26 15:30:00,
2013-05-26 10:35:00,76.8,70.5,30.17,NE,34,0.0,2.0,81,0.00,,---,0.00,VWS V14.01,2013-05-26 15:35:00,
2013-05-26 10:36:00,76.7,70.4,30.17,NE,34,0.0,2.0,81,0.00,,---,0.00,VWS V14.01,2013-05-26 15:36:00,
2013-05-26 10:45:00,76.8,69.8,30.17,WSW,242,0.0,1.0,79,0.00,,---,0.00,VWS V14.01,2013-05-26 15:45:00,
2013-05-26 10:50:00,76.9,69.9,30.17,WSW,242,0.0,1.0,79,0.00,,---,0.00,VWS V14.01,2013-05-26 15:50:00,
2013-05-26 10:55:00,76.9,70.3,30.17,WSW,241,0.0,1.0,80,0.00,,---,0.00,VWS V14.01,2013-05-26 15:55:00,
2013-05-26 11:00:00,77.1,69.7,30.16,WSW,240,0.0,2.0,78,0.00,,---,0.00,VWS V14.01,2013-05-26 16:00:00,
2013-05-26 11:05:00,77.5,71.2,30.16,WSW,240,1.0,2.0,81,0.00,,---,0.00,VWS V14.01,2013-05-26 16:05:00,
2013-05-26 11:06:00,77.6,70.6,30.16,WSW,240,0.0,2.0,79,0.00,,---,0.00,VWS V14.01,2013-05-26 16:06:00,
2013-05-26 11:15:00,78.1,71.1,30.16,South,169,0.0,2.0,79,0.00,,---,0.00,VWS V14.01,2013-05-26 16:15:00,
2013-05-26 11:20:00,78.7,70.9,30.16,South,169,0.0,2.0,77,0.00,,---,0.00,VWS V14.01,2013-05-26 16:20:00,
2013-05-26 11:25:00,79.2,71.4,30.16,SE,132,0.0,2.0,77,0.00,,---,0.00,VWS V14.01,2013-05-26 16:25:00,
2013-05-26 11:30:00,79.2,69.8,30.16,NE,50,1.0,2.0,73,0.00,,---,0.00,VWS V14.01,2013-05-26 16:30:00,
2013-05-26 11:35:00,79.8,70.4,30.16,NE,50,0.0,2.0,73,0.00,,---,0.00,VWS V14.01,2013-05-26 16:35:00,
2013-05-26 11:36:00,79.9,70.9,30.16,NE,49,0.0,2.0,74,0.00,,---,0.00,VWS V14.01,2013-05-26 16:36:00,
2013-05-26 11:40:00,80.1,69.9,30.16,NE,43,0.0,3.0,71,0.00,,---,0.00,VWS V14.01,2013-05-26 16:40:00,
2013-05-26 11:45:00,80.3,70.1,30.16,East,88,2.0,5.0,71,0.00,,---,0.00,VWS V14.01,2013-05-26 16:45:00,
2013-05-26 11:51:00,81.1,70.0,30.15,SSE,152,0.0,5.0,69,0.00,,---,0.00,VWS V14.01,2013-05-26 16:51:00,
2013-05-26 11:56:00,81.6,69.6,30.15,ESE,111,0.0,5.0,67,0.00,,---,0.00,VWS V14.01,2013-05-26 16:56:00,
2013-05-26 12:01:00,81.8,70.2,30.15,ESE,111,2.0,5.0,68,0.00,,---,0.00,VWS V14.01,2013-05-26 17:01:00,
2013-05-26 12:06:00,81.3,69.7,30.15,NE,45,0.0,5.0,68,0.00,,---,0.00,VWS V14.01,2013-05-26 17:06:00,
2013-05-26 12:11:00,81.2,67.4,30.16,NNW,345,1.0,2.0,63,0.00,,---,0.00,VWS V14.01,2013-05-26 17:11:00,
2013-05-26 12:16:00,80.9,68.0,30.16,NNW,331,0.0,3.0,65,0.00,,---,0.00,VWS V14.01,2013-05-26 17:16:00,
2013-05-26 12:21:00,80.7,69.6,30.16,NNW,337,0.0,3.0,69,0.00,,---,0.00,VWS V14.01,2013-05-26 17:21:00,
2013-05-26 12:26:00,80.5,69.4,30.16,ENE,69,0.0,3.0,69,0.00,,---,0.00,VWS V14.01,2013-05-26 17:26:00,
2013-05-26 12:31:00,80.6,68.2,30.16,NW,306,0.0,5.0,66,0.00,,---,0.00,VWS V14.01,2013-05-26 17:31:00,
2013-05-26 12:36:00,80.5,69.4,30.15,SSW,196,0.0,5.0,69,0.00,,---,0.00,VWS V14.01,2013-05-26 17:36:00,
2013-05-26 12:46:00,80.8,68.8,30.15,WSW,240,0.0,2.0,67,0.00,,---,0.00,VWS V14.01,2013-05-26 17:46:00,
2013-05-26 12:51:00,80.8,69.7,30.15,ESE,121,0.0,3.0,69,0.00,,---,0.00,VWS V14.01,2013-05-26 17:51:00,
2013-05-26 12:56:00,80.9,68.0,30.15,NE,53,1.0,3.0,65,0.00,,---,0.00,VWS V14.01,2013-05-26 17:56:00,
2013-05-26 13:01:00,81.1,71.2,30.15,ENE,61,0.0,3.0,72,0.00,,---,0.00,VWS V14.01,2013-05-26 18:01:00,
2013-05-26 13:06:00,81.6,70.4,30.14,NE,56,0.0,3.0,69,0.00,,---,0.00,VWS V14.01,2013-05-26 18:06:00,
2013-05-26 13:11:00,81.7,70.6,30.15,NE,56,0.0,2.0,69,0.00,,---,0.00,VWS V14.01,2013-05-26 18:11:00,
2013-05-26 13:16:00,82.0,70.0,30.15,SE,126,0.0,3.0,67,0.00,,---,0.00,VWS V14.01,2013-05-26 18:16:00,
2013-05-26 13:21:00,81.7,67.4,30.15,SW,236,3.0,5.0,62,0.00,,---,0.00,VWS V14.01,2013-05-26 18:21:00,
2013-05-26 13:26:00,81.9,70.7,30.14,ESE,111,0.0,6.0,69,0.00,,---,0.00,VWS V14.01,2013-05-26 18:26:00,
2013-05-26 13:31:00,81.9,70.7,30.14,ESE,115,1.0,6.0,69,0.00,,---,0.00,VWS V14.01,2013-05-26 18:31:00,
2013-05-26 13:36:00,81.9,69.4,30.14,SW,223,2.0,6.0,66,0.00,,---,0.00,VWS V14.01,2013-05-26 18:36:00,
2013-05-26 13:41:00,81.8,70.2,30.14,WNW,302,0.0,3.0,68,0.00,,---,0.00,VWS V14.01,2013-05-26 18:41:00,
2013-05-26 13:46:00,82.1,70.5,30.14,West,270,0.0,3.0,68,0.00,,---,0.00,VWS V14.01,2013-05-26 18:46:00,
2013-05-26 13:51:00,82.3,71.5,30.14,NNE,17,0.0,3.0,70,0.00,,---,0.00,VWS V14.01,2013-05-26 18:51:00,
2013-05-26 13:56:00,81.8,69.8,30.14,East,93,0.0,3.0,67,0.00,,---,0.00,VWS V14.01,2013-05-26 18:56:00,
2013-05-26 14:01:00,82.0,70.0,30.14,ENE,74,0.0,3.0,67,0.00,,---,0.00,VWS V14.01,2013-05-26 19:01:00,
2013-05-26 14:06:00,82.3,71.1,30.14,ENE,67,0.0,3.0,69,0.00,,---,0.00,VWS V14.01,2013-05-26 19:06:00,
2013-05-26 14:11:00,82.0,67.7,30.14,ESE,107,1.0,4.0,62,0.00,,---,0.00,VWS V14.01,2013-05-26 19:11:00,
2013-05-26 14:16:00,81.9,69.4,30.14,East,80,0.0,4.0,66,0.00,,---,0.00,VWS V14.01,2013-05-26 19:16:00,
2013-05-26 14:21:00,81.8,67.5,30.14,ENE,75,0.0,4.0,62,0.00,,---,0.00,VWS V14.01,2013-05-26 19:21:00,
2013-05-26 14:26:00,81.9,69.4,30.13,WSW,240,2.0,4.0,66,0.00,,---,0.00,VWS V14.01,2013-05-26 19:26:00,
2013-05-26 14:31:00,81.5,71.2,30.13,South,175,0.0,4.0,71,0.00,,---,0.00,VWS V14.01,2013-05-26 19:31:00,
2013-05-26 14:36:00,81.9,69.4,30.13,South,177,0.0,4.0,66,0.00,,---,0.00,VWS V14.01,2013-05-26 19:36:00,
2013-05-26 14:41:00,82.1,70.9,30.13,SE,126,0.0,2.0,69,0.00,,---,0.00,VWS V14.01,2013-05-26 19:41:00,
2013-05-26 14:46:00,82.1,69.2,30.12,East,80,0.0,2.0,65,0.00,,---,0.00,VWS V14.01,2013-05-26 19:46:00,
2013-05-26 14:51:00,81.9,68.1,30.12,ENE,68,0.0,2.0,63,0.00,,---,0.00,VWS V14.01,2013-05-26 19:51:00,
2013-05-26 14:56:00,81.9,70.7,30.12,SE,138,0.0,2.0,69,0.00,,---,0.00,VWS V14.01,2013-05-26 19:56:00,
2013-05-26 15:01:00,82.4,68.6,30.12,North,360,0.0,4.0,63,0.00,,---,0.00,VWS V14.01,2013-05-26 20:01:00,
2013-05-26 15:06:00,82.9,71.3,30.12,North,360,0.0,4.0,68,0.00,,---,0.00,VWS V14.01,2013-05-26 20:06:00,
2013-05-26 15:11:00,82.7,69.3,30.12,NNE,30,0.0,0.0,64,0.00,,---,0.00,VWS V14.01,2013-05-26 20:11:00,
2013-05-26 15:16:00,82.3,69.8,30.11,East,88,0.0,2.0,66,0.00,,---,0.00,VWS V14.01,2013-05-26 20:16:00,
2013-05-26 15:21:00,82.2,69.7,30.11,ENE,73,1.0,2.0,66,0.00,,---,0.00,VWS V14.01,2013-05-26 20:21:00,
2013-05-26 15:26:00,81.9,69.0,30.11,ENE,73,1.0,2.0,65,0.00,,---,0.00,VWS V14.01,2013-05-26 20:26:00,
2013-05-26 15:31:00,82.0,69.5,30.11,North,9,0.0,2.0,66,0.00,,---,0.00,VWS V14.01,2013-05-26 20:31:00,
2013-05-26 15:36:00,81.2,70.5,30.11,ENE,65,0.0,2.0,70,0.00,,---,0.00,VWS V14.01,2013-05-26 20:36:00,
2013-05-26 15:41:00,81.2,68.8,30.10,ESE,118,0.0,1.0,66,0.00,,---,0.00,VWS V14.01,2013-05-26 20:41:00,
2013-05-26 15:46:00,81.3,70.2,30.10,ESE,118,0.0,1.0,69,0.00,,---,0.00,VWS V14.01,2013-05-26 20:46:00,
2013-05-26 15:51:00,81.3,70.2,30.10,SE,125,0.0,1.0,69,0.00,,---,0.00,VWS V14.01,2013-05-26 20:51:00,
2013-05-26 15:56:00,81.6,70.0,30.10,ESE,108,0.0,1.0,68,0.00,,---,0.00,VWS V14.01,2013-05-26 20:56:00,
2013-05-26 16:01:00,81.6,70.9,30.10,SSW,199,0.0,2.0,70,0.00,,---,0.00,VWS V14.01,2013-05-26 21:01:00,
2013-05-26 16:06:00,81.3,71.0,30.10,SSW,198,0.0,0.0,71,0.00,,---,0.00,VWS V14.01,2013-05-26 21:06:00,
2013-05-26 16:11:00,80.9,69.8,30.10,South,173,0.0,0.0,69,0.00,,---,0.00,VWS V14.01,2013-05-26 21:11:00,
2013-05-26 16:16:00,81.2,69.6,30.10,SSE,164,0.0,1.0,68,0.00,,---,0.00,VWS V14.01,2013-05-26 21:16:00,
2013-05-26 16:21:00,81.3,69.3,30.10,SSE,164,0.0,1.0,67,0.00,,---,0.00,VWS V14.01,2013-05-26 21:21:00,
2013-05-26 16:26:00,81.4,69.4,30.10,SSE,165,0.0,1.0,67,0.00,,---,0.00,VWS V14.01,2013-05-26 21:26:00,
2013-05-26 16:31:00,81.5,67.7,30.10,SSE,165,0.0,1.0,63,0.00,,---,0.00,VWS V14.01,2013-05-26 21:31:00,
2013-05-26 16:36:00,80.9,68.9,30.10,SSE,165,0.0,1.0,67,0.00,,---,0.00,VWS V14.01,2013-05-26 21:36:00,
2013-05-26 16:41:00,80.9,67.6,30.09,SE,146,0.0,0.0,64,0.00,,---,0.00,VWS V14.01,2013-05-26 21:41:00,
2013-05-26 16:46:00,81.4,68.1,30.09,South,178,0.0,0.0,64,0.00,,---,0.00,VWS V14.01,2013-05-26 21:46:00,
2013-05-26 16:51:00,82.8,69.8,30.09,South,180,0.0,1.0,65,0.00,,---,0.00,VWS V14.01,2013-05-26 21:51:00,
2013-05-26 16:56:00,83.2,69.3,30.09,WSW,237,0.0,1.0,63,0.00,,---,0.00,VWS V14.01,2013-05-26 21:56:00,
2013-05-26 17:01:00,83.2,68.8,30.09,SSE,161,1.0,2.0,62,0.00,,---,0.00,VWS V14.01,2013-05-26 22:01:00,
2013-05-26 17:06:00,82.8,68.5,30.09,SSE,161,1.0,2.0,62,0.00,,---,0.00,VWS V14.01,2013-05-26 22:06:00,
2013-05-26 17:11:00,82.6,68.3,30.08,ESE,108,0.0,2.0,62,0.00,,---,0.00,VWS V14.01,2013-05-26 22:11:00,
2013-05-26 17:16:00,82.9,69.0,30.08,ESE,108,0.0,2.0,63,0.00,,---,0.00,VWS V14.01,2013-05-26 22:16:00,
2013-05-26 17:21:00,83.0,68.2,30.08,ESE,104,1.0,2.0,61,0.00,,---,0.00,VWS V14.01,2013-05-26 22:21:00,
2013-05-26 17:26:00,83.4,66.6,30.08,East,79,0.0,3.0,57,0.00,,---,0.00,VWS V14.01,2013-05-26 22:26:00,
2013-05-26 17:31:00,83.2,67.9,30.08,East,88,0.0,3.0,60,0.00,,---,0.00,VWS V14.01,2013-05-26 22:31:00,
2013-05-26 17:36:00,82.5,68.2,30.07,East,88,0.0,1.0,62,0.00,,---,0.00,VWS V14.01,2013-05-26 22:36:00,
2013-05-26 17:41:00,82.2,67.9,30.08,East,88,0.0,2.0,62,0.00,,---,0.00,VWS V14.01,2013-05-26 22:41:00,
2013-05-26 17:46:00,81.1,68.7,30.07,East,87,0.0,2.0,66,0.00,,---,0.00,VWS V14.01,2013-05-26 22:46:00,
2013-05-26 17:51:00,80.4,67.6,30.07,ENE,61,0.0,2.0,65,0.00,,---,0.00,VWS V14.01,2013-05-26 22:51:00,
2013-05-26 17:57:00,79.9,68.8,30.07,NNE,33,0.0,2.0,69,0.00,,---,0.00,VWS V14.01,2013-05-26 22:57:00,
2013-05-26 18:02:00,79.6,69.4,30.07,NNE,21,0.0,2.0,71,0.00,,---,0.00,VWS V14.01,2013-05-26 23:02:00,
2013-05-26 18:06:00,79.4,70.8,30.07,SSW,209,0.0,2.0,75,0.00,,---,0.00,VWS V14.01,2013-05-26 23:06:00,
2013-05-26 18:07:00,79.4,70.8,30.07,SSW,209,0.0,0.0,75,0.00,,---,0.00,VWS V14.01,2013-05-26 23:07:00,
2013-05-26 18:12:00,79.2,70.2,30.07,WSW,245,0.0,0.0,74,0.00,,---,0.00,VWS V14.01,2013-05-26 23:12:00,
2013-05-26 18:17:00,79.1,69.3,30.07,ENE,66,0.0,0.0,72,0.00,,---,0.00,VWS V14.01,2013-05-26 23:17:00,
2013-05-26 18:22:00,79.5,70.5,30.06,ENE,66,0.0,0.0,74,0.00,,---,0.00,VWS V14.01,2013-05-26 23:22:00,
2013-05-26 18:27:00,80.2,69.1,30.06,ENE,65,0.0,1.0,69,0.00,,---,0.00,VWS V14.01,2013-05-26 23:27:00,
2013-05-26 18:32:00,80.3,69.6,30.06,ENE,66,0.0,1.0,70,0.00,,---,0.00,VWS V14.01,2013-05-26 23:32:00,
2013-05-26 18:36:00,80.2,70.8,30.07,ESE,107,0.0,1.0,73,0.00,,---,0.00,VWS V14.01,2013-05-26 23:36:00,
2013-05-26 18:37:00,80.2,70.8,30.06,ESE,107,0.0,0.0,73,0.00,,---,0.00,VWS V14.01,2013-05-26 23:37:00,
2013-05-26 18:42:00,79.8,71.2,30.06,ESE,106,0.0,0.0,75,0.00,,---,0.00,VWS V14.01,2013-05-26 23:42:00,
2013-05-26 18:47:00,79.7,71.5,30.06,NE,43,0.0,1.0,76,0.00,,---,0.00,VWS V14.01,2013-05-26 23:47:00,
2013-05-26 18:52:00,79.9,70.5,30.06,NE,43,0.0,1.0,73,0.00,,---,0.00,VWS V14.01,2013-05-26 23:52:00,
2013-05-26 18:57:00,79.5,70.1,30.06,NE,43,0.0,1.0,73,0.00,,---,0.00,VWS V14.01,2013-05-26 23:57:00,
2013-05-26 19:02:00,79.2,70.2,30.06,West,267,0.0,1.0,74,0.00,,---,0.00,VWS V14.01,2013-05-27 00:02:00,
2013-05-26 19:07:00,79.0,69.2,30.06,East,82,0.0,0.0,72,0.00,,---,0.00,VWS V14.01,2013-05-27 00:07:00,
2013-05-26 19:12:00,78.9,69.1,30.06,East,82,1.0,1.0,72,0.00,,---,0.00,VWS V14.01,2013-05-27 00:12:00,
2013-05-26 19:17:00,78.5,69.5,30.06,East,82,0.0,1.0,74,0.00,,---,0.00,VWS V14.01,2013-05-27 00:17:00,
2013-05-26 19:22:00,78.1,69.5,30.06,ENE,76,0.0,1.0,75,0.00,,---,0.00,VWS V14.01,2013-05-27 00:22:00,
2013-05-26 19:27:00,77.4,71.5,30.06,WNW,298,0.0,1.0,82,0.00,,---,0.00,VWS V14.01,2013-05-27 00:27:00,
2013-05-26 19:32:00,77.1,69.3,30.06,NNW,329,0.0,1.0,77,0.00,,---,0.00,VWS V14.01,2013-05-27 00:32:00,
2013-05-26 19:37:00,77.5,70.1,30.06,NNE,20,0.0,0.0,78,0.00,,---,0.00,VWS V14.01,2013-05-27 00:37:00,
2013-05-26 19:42:00,76.8,70.2,30.06,NE,34,1.0,1.0,80,0.00,,---,0.00,VWS V14.01,2013-05-27 00:42:00,
2013-05-26 19:47:00,76.4,70.5,30.06,NE,34,0.0,1.0,82,0.00,,---,0.00,VWS V14.01,2013-05-27 00:47:00,
2013-05-26 19:52:00,76.3,70.4,30.06,NE,34,0.0,1.0,82,0.00,,---,0.00,VWS V14.01,2013-05-27 00:52:00,
2013-05-26 19:57:00,76.0,69.8,30.06,NE,34,0.0,1.0,81,0.00,,---,0.00,VWS V14.01,2013-05-27 00:57:00,
2013-05-26 20:02:00,75.9,70.0,30.06,NE,34,0.0,1.0,82,0.00,,---,0.00,VWS V14.01,2013-05-27 01:02:00,
2013-05-26 20:07:00,76.1,69.5,30.06,NE,36,0.0,1.0,80,0.00,,---,0.00,VWS V14.01,2013-05-27 01:07:00,
2013-05-26 20:12:00,76.8,69.4,30.06,NE,38,0.0,2.0,78,0.00,,---,0.00,VWS V14.01,2013-05-27 01:12:00,
2013-05-26 20:17:00,76.7,70.1,30.06,NE,38,0.0,2.0,80,0.00,,---,0.00,VWS V14.01,2013-05-27 01:17:00,
2013-05-26 20:22:00,76.2,69.9,30.06,South,179,0.0,2.0,81,0.00,,---,0.00,VWS V14.01,2013-05-27 01:22:00,
2013-05-26 20:27:00,75.8,69.9,30.06,South,179,0.0,2.0,82,0.00,,---,0.00,VWS V14.01,2013-05-27 01:27:00,
2013-05-26 20:32:00,75.6,70.1,30.06,South,179,0.0,2.0,83,0.00,,---,0.00,VWS V14.01,2013-05-27 01:32:00,
2013-05-26 20:37:00,75.4,69.5,30.05,South,179,0.0,0.0,82,0.00,,---,0.00,VWS V14.01,2013-05-27 01:37:00,
2013-05-26 20:42:00,75.4,69.2,30.06,South,179,0.0,0.0,81,0.00,,---,0.00,VWS V14.01,2013-05-27 01:42:00,
2013-05-26 20:47:00,75.5,69.3,30.06,South,179,0.0,0.0,81,0.00,,---,0.00,VWS V14.01,2013-05-27 01:47:00,
2013-05-26 20:52:00,75.5,68.9,30.06,South,179,0.0,0.0,80,0.00,,---,0.00,VWS V14.01,2013-05-27 01:52:00,
2013-05-26 20:57:00,75.3,69.1,30.06,SSW,207,1.0,3.0,81,0.00,,---,0.00,VWS V14.01,2013-05-27 01:57:00,
2013-05-26 21:02:00,75.1,68.5,30.07,SSE,165,0.0,3.0,80,0.00,,---,0.00,VWS V14.01,2013-05-27 02:02:00,
2013-05-26 21:06:00,75.2,69.0,30.07,SSE,165,0.0,3.0,81,0.00,,---,0.00,VWS V14.01,2013-05-27 02:06:00,
2013-05-26 21:07:00,75.1,68.9,30.07,SSE,165,0.0,1.0,81,0.00,,---,0.00,VWS V14.01,2013-05-27 02:07:00,
2013-05-26 21:12:00,75.1,68.9,30.06,SSE,165,0.0,1.0,81,0.00,,---,0.00,VWS V14.01,2013-05-27 02:12:00,
2013-05-26 21:17:00,75.0,69.1,30.07,SSE,165,0.0,1.0,82,0.00,,---,0.00,VWS V14.01,2013-05-27 02:17:00,
2013-05-26 21:22:00,75.1,68.9,30.07,SSE,165,0.0,1.0,81,0.00,,---,0.00,VWS V14.01,2013-05-27 02:22:00,
2013-05-26 21:27:00,75.1,69.2,30.07,SSE,165,0.0,1.0,82,0.00,,---,0.00,VWS V14.01,2013-05-27 02:27:00,
2013-05-26 21:32:00,75.2,69.3,30.07,SSE,165,0.0,1.0,82,0.00,,---,0.00,VWS V14.01,2013-05-27 02:32:00,
2013-05-26 21:37:00,75.3,69.4,30.07,South,190,0.0,0.0,82,0.00,,---,0.00,VWS V14.01,2013-05-27 02:37:00,
2013-05-26 21:42:00,75.3,69.4,30.07,South,190,0.0,0.0,82,0.00,,---,0.00,VWS V14.01,2013-05-27 02:42:00,
2013-05-26 21:47:00,75.2,69.0,30.07,South,190,0.0,0.0,81,0.00,,---,0.00,VWS V14.01,2013-05-27 02:47:00,
2013-05-26 21:52:00,75.1,68.9,30.07,South,190,0.0,0.0,81,0.00,,---,0.00,VWS V14.01,2013-05-27 02:52:00,
2013-05-26 21:57:00,75.0,69.1,30.07,South,190,0.0,0.0,82,0.00,,---,0.00,VWS V14.01,2013-05-27 02:57:00,
2013-05-26 22:02:00,74.9,69.0,30.07,SE,130,0.0,1.0,82,0.00,,---,0.00,VWS V14.01,2013-05-27 03:02:00,
2013-05-26 22:06:00,75.0,69.1,30.07,SE,130,0.0,1.0,82,0.00,,---,0.00,VWS V14.01,2013-05-27 03:06:00,
2013-05-26 22:07:00,75.0,69.1,30.07,SE,130,0.0,0.0,82,0.00,,---,0.00,VWS V14.01,2013-05-27 03:07:00,
2013-05-26 22:12:00,74.7,69.6,30.08,SE,130,0.0,0.0,84,0.00,,---,0.00,VWS V14.01,2013-05-27 03:12:00,
2013-05-26 22:17:00,74.6,68.8,30.08,SE,130,0.0,0.0,82,0.00,,---,0.00,VWS V14.01,2013-05-27 03:17:00,
2013-05-26 22:22:00,74.7,69.2,30.08,SE,130,0.0,0.0,83,0.00,,---,0.00,VWS V14.01,2013-05-27 03:22:00,
2013-05-26 22:27:00,74.6,69.1,30.08,SE,130,0.0,0.0,83,0.00,,---,0.00,VWS V14.01,2013-05-27 03:27:00,
2013-05-26 22:32:00,74.4,68.9,30.08,SE,130,0.0,0.0,83,0.00,,---,0.00,VWS V14.01,2013-05-27 03:32:00,
2013-05-26 22:37:00,74.1,69.0,30.08,SE,130,0.0,0.0,84,0.00,,---,0.00,VWS V14.01,2013-05-27 03:37:00,
2013-05-26 22:42:00,74.2,69.4,30.08,SE,125,0.0,0.0,85,0.00,,---,0.00,VWS V14.01,2013-05-27 03:42:00,
2013-05-26 22:47:00,74.0,69.2,30.08,ESE,123,0.0,0.0,85,0.00,,---,0.00,VWS V14.01,2013-05-27 03:47:00,
2013-05-26 22:52:00,73.9,69.4,30.08,ESE,123,0.0,0.0,86,0.00,,---,0.00,VWS V14.01,2013-05-27 03:52:00,
2013-05-26 22:57:00,73.8,69.3,30.08,ESE,123,0.0,0.0,86,0.00,,---,0.00,VWS V14.01,2013-05-27 03:57:00,
2013-05-26 23:02:00,73.8,69.3,30.08,ESE,123,0.0,1.0,86,0.00,,---,0.00,VWS V14.01,2013-05-27 04:02:00,
2013-05-26 23:06:00,73.7,69.6,30.09,ESE,123,0.0,1.0,87,0.00,,---,0.00,VWS V14.01,2013-05-27 04:06:00,
2013-05-26 23:12:00,73.6,69.8,30.09,NNW,327,0.0,3.0,88,0.00,,---,0.00,VWS V14.01,2013-05-27 04:12:00,
2013-05-26 23:17:00,73.8,69.7,30.09,WNW,291,0.0,3.0,87,0.00,,---,0.00,VWS V14.01,2013-05-27 04:17:00,
2013-05-26 23:22:00,74.2,70.1,30.09,SSW,198,0.0,3.0,87,0.00,,---,0.00,VWS V14.01,2013-05-27 04:22:00,
2013-05-26 23:27:00,74.6,70.1,30.09,WSW,255,0.0,3.0,86,0.00,,---,0.00,VWS V14.01,2013-05-27 04:27:00,
2013-05-26 23:32:00,74.7,70.2,30.09,WSW,245,1.0,4.0,86,0.00,,---,0.00,VWS V14.01,2013-05-27 04:32:00,
2013-05-26 23:37:00,75.0,70.5,30.09,NNW,348,1.0,1.0,86,0.00,,---,0.00,VWS V14.01,2013-05-27 04:37:00,
2013-05-26 23:42:00,75.2,70.4,30.09,SSE,160,0.0,3.0,85,0.00,,---,0.00,VWS V14.01,2013-05-27 04:42:00,
2013-05-26 23:47:00,75.3,70.5,30.09,NNE,26,0.0,6.0,85,0.00,,---,0.00,VWS V14.01,2013-05-27 04:47:00,
2013-05-26 23:52:00,75.4,70.6,30.09,NW,313,0.0,6.0,85,0.00,,---,0.00,VWS V14.01,2013-05-27 04:52:00,
2013-05-26 23:58:00,75.3,70.5,30.09,NW,313,0.0,6.0,85,0.00,,---,0.00,VWS V14.01,2013-05-27 04:58:00,